QPF
0.03 0.02 0.01 0.01 0.00 0.00 0.01 0.02 0.02 0.02 0.03 0.06 0.03 0.00 0.00 0.01 0.00 0.00 0.00 0.00 0.00 0.00 0.00 0.00 0.01 0.01 0.00 0.00 0.00 0.00 0.00 0.00 0.00 0.00 0.00 0.00 0.00 0.00 0.00 0.00 0.00 0.00 0.00 0.00
0.01 0.01 0.00 0.00 0.00 0.00 0.00 0.01 0.01 0.01 0.02 0.05 0.05 0.02 0.01 0.01 0.00 0.00 0.00 0.00 0.00 0.00 0.00 0.00 0.00 0.01 0.01 0.00 0.00 0.00 0.00 0.00 0.00 0.00 0.00 0.00 0.00 0.00 0.00 0.00 0.00 0.00 0.00 0.00
0.01 0.00 0.00 0.00 0.00 0.01 0.00 0.00 0.01 0.01 0.02 0.02 0.04 0.03 0.01 0.01 0.01 0.01 0.01 0.01 0.00 0.01 0.01 0.00 0.00 0.00 0.01 0.01 0.00 0.00 0.00 0.00 0.00 0.00 0.00 0.00 0.00 0.00 0.00 0.00 0.00 0.00 0.00 0.00
0.02 0.01 0.01 0.01 0.00 0.01 0.01 0.00 0.00 0.01 0.01 0.01 0.02 0.03 0.02 0.01 0.01 0.01 0.01 0.00 0.00 0.01 0.01 0.01 0.00 0.00 0.01 0.01 0.01 0.01 0.00 0.00 0.00 0.00 0.00 0.00 0.00 0.00 0.00 0.00 0.00 0.00 0.00 0.00
0.02 0.01 0.01 0.00 0.00 0.00 0.00 0.01 0.01 0.01 0.01 0.01 0.01 0.03 0.02 0.00 0.00 0.00 0.01 0.00 0.00 0.01 0.01 0.01 0.01 0.01 0.01 0.01 0.01 0.01 0.00 0.00 0.00 0.00 0.00 0.00 0.00 0.00 0.00 0.00 0.00 0.00 0.00 0.00
0.01 0.01 0.01 0.01 0.01 0.01 0.00 0.01 0.01 0.01 0.01 0.02 0.02 0.02 0.02 0.00 0.00 0.00 0.00 0.01 0.00 0.01 0.01 0.01 0.01 0.01 0.02 0.01 0.01 0.00 0.00 0.00 0.00 0.00 0.00 0.00 0.00 0.00 0.00 0.00 0.00 0.00 0.00 0.00
0.01 0.01 0.01 0.01 0.01 0.01 0.00 0.01 0.01 0.01 0.01 0.01 0.01 0.01 0.01 0.01 0.00 0.00 0.00 0.00 0.00 0.00 0.01 0.01 0.01 0.02 0.02 0.02 0.01 0.01 0.00 0.00 0.00 0.00 0.00 0.00 0.00 0.00 0.00 0.00 0.00 0.00 0.00 0.00
0.00 0.01 0.01 0.01 0.01 0.01 0.01 0.00 0.00 0.00 0.00 0.00 0.01 0.01 0.00 0.00 0.00 0.01 0.01 0.00 0.00 0.01 0.01 0.02 0.02 0.02 0.02 0.01 0.01 0.01 0.00 0.00 0.00 0.00 0.00 0.00 0.00 0.00 0.00 0.00 0.00 0.00 0.00 0.00
0.00 0.01 0.01 0.01 0.01 0.01 0.01 0.00 0.00 0.00 0.00 0.00 0.00 0.00 0.00 0.00 0.00 0.00 0.00 0.00 0.00 0.01 0.01 0.02 0.02 0.02 0.02 0.02 0.01 0.01 0.01 0.00 0.00 0.00 0.00 0.00 0.00 0.01 0.01 0.00 0.00 0.00 0.00 0.00
0.00 0.01 0.01 0.01 0.01 0.01 0.01 0.01 0.01 0.01 0.00 0.01 0.01 0.00 0.00 0.00 0.00 0.00 0.00 0.00 0.00 0.01 0.00 0.01 0.01 0.01 0.01 0.01 0.01 0.01 0.01 0.00 0.00 0.00 0.00 0.00 0.00 0.00 0.00 0.00 0.00 0.00 0.00 0.00
0.00 0.01 0.01 0.01 0.01 0.01 0.01 0.01 0.01 0.00 0.01 0.01 0.01 0.00 0.00 0.00 0.00 0.00 0.00 0.01 0.01 0.01 0.01 0.00 0.00 0.00 0.01 0.01 0.01 0.01 0.01 0.01 0.01 0.00 0.00 0.00 0.00 0.00 0.00 0.00 0.00 0.00 0.00 0.00
0.00 0.00 0.01 0.01 0.01 0.01 0.01 0.01 0.01 0.01 0.00 0.01 0.00 0.00 0.00 0.00 0.00 0.00 0.01 0.01 0.01 0.01 0.01 0.01 0.00 0.00 0.00 0.00 0.00 0.01 0.01 0.01 0.01 0.01 0.00 0.00 0.00 0.00 0.00 0.00 0.00 0.00 0.00 0.00
0.00 0.00 0.01 0.01 0.01 0.01 0.01 0.01 0.01 0.00 0.00 0.00 0.00 0.00 0.00 0.00 0.00 0.00 0.00 0.01 0.01 0.01 0.01 0.01 0.01 0.00 0.00 0.00 0.00 0.00 0.01 0.01 0.00 0.00 0.00 0.00 0.00 0.00 0.00 0.00 0.00 0.00 0.00 0.00
0.01 0.00 0.00 0.00 0.00 0.01 0.01 0.01 0.01 0.01 0.00 0.00 0.00 0.00 0.00 0.00 0.00 0.00 0.00 0.00 0.01 0.01 0.01 0.01 0.01 0.00 0.00 0.00 0.00 0.00 0.01 0.01 0.01 0.01 0.00 0.00 0.00 0.00 0.00 0.00 0.00 0.00 0.00 0.00
0.01 0.00 0.00 0.00 0.00 0.00 0.01 0.01 0.00 0.00 0.00 0.00 0.00 0.00 0.00 0.00 0.00 0.00 0.00 0.00 0.01 0.01 0.01 0.01 0.00 0.00 0.00 0.01 0.01 0.01 0.01 0.01 0.01 0.01 0.01 0.00 0.00 0.00 0.00 0.00 0.00 0.00 0.00 0.00
0.01 0.01 0.00 0.00 0.00 0.00 0.00 0.00 0.00 0.00 0.00 0.00 0.00 0.00 0.00 0.00 0.00 0.00 0.00 0.00 0.00 0.01 0.00 0.00 0.00 0.00 0.00 0.00 0.01 0.02 0.02 0.02 0.01 0.01 0.01 0.00 0.00 0.00 0.00 0.00 0.00 0.00 0.00 0.00
0.02 0.01 0.01 0.00 0.00 0.00 0.00 0.00 0.00 0.00 0.00 0.00 0.00 0.00 0.00 0.00 0.00 0.00 0.00 0.01 0.00 0.00 0.00 0.00 0.00 0.00 0.00 0.00 0.01 0.02 0.03 0.05 0.05 0.02 0.01 0.01 0.01 0.00 0.00 0.00 0.00 0.00 0.00 0.00
0.01 0.02 0.01 0.01 0.00 0.00 0.00 0.00 0.00 0.00 0.00 0.00 0.00 0.00 0.00 0.00 0.00 0.00 0.01 0.01 0.00 0.00 0.00 0.00 0.00 0.00 0.01 0.01 0.01 0.02 0.02 0.04 0.06 0.04 0.02 0.01 0.01 0.01 0.00 0.00 0.00 0.00 0.00 0.00
0.01 0.02 0.02 0.01 0.00 0.00 0.00 0.00 0.00 0.00 0.00 0.00 0.00 0.00 0.00 0.00 0.00 0.00 0.01 0.01 0.00 0.00 0.00 0.00 0.00 0.00 0.00 0.01 0.01 0.01 0.01 0.01 0.02 0.02 0.02 0.02 0.02 0.02 0.01 0.01 0.00 0.00 0.00 0.01
0.01 0.02 0.03 0.02 0.01 0.00 0.00 0.00 0.00 0.00 0.01 0.01 0.00 0.00 0.00 0.00 0.00 0.00 0.01 0.01 0.00 0.01 0.01 0.01 0.01 0.01 0.01 0.01 0.01 0.01 0.01 0.01 0.01 0.02 0.01 0.02 0.02 0.02 0.02 0.03 0.03 0.01 0.01 0.02
0.01 0.02 0.02 0.03 0.02 0.01 0.00 0.00 0.00 0.00 0.00 0.00 0.00 0.00 0.00 0.00 0.00 0.00 0.01 0.01 0.00 0.01 0.01 0.01 0.01 0.01 0.01 0.01 0.01 0.01 0.01 0.01 0.01 0.01 0.02 0.02 0.02 0.03 0.03 0.03 0.05 0.04 0.03 0.03
0.02 0.02 0.02 0.02 0.02 0.01 0.00 0.00 0.01 0.01 0.00 0.00 0.00 0.00 0.00 0.00 0.01 0.01 0.01 0.00 0.00 0.00 0.00 0.00 0.00 0.00 0.01 0.01 0.01 0.01 0.01 0.01 0.02 0.02 0.02 0.02 0.02 0.02 0.02 0.02 0.02 0.03 0.03 0.03
0.01 0.02 0.03 0.02 0.01 0.01 0.00 0.00 0.01 0.00 0.00 0.00 0.00 0.00 0.00 0.00 0.01 0.01 0.01 0.01 0.00 0.01 0.01 0.00 0.00 0.00 0.00 0.00 0.01 0.01 0.01 0.01 0.01 0.01 0.01 0.02 0.03 0.02 0.02 0.02 0.02 0.02 0.01 0.01
0.02 0.01 0.02 0.01 0.01 0.01 0.01 0.01 0.01 0.01 0.01 0.00 0.00 0.00 0.00 0.00 0.00 0.01 0.01 0.01 0.01 0.01 0.01 0.01 0.00 0.00 0.00 0.00 0.00 0.01 0.01 0.01 0.01 0.01 0.01 0.02 0.03 0.03 0.04 0.04 0.03 0.02 0.01 0.01
0.02 0.02 0.01 0.01 0.01 0.01 0.01 0.01 0.01 0.01 0.01 0.01 0.01 0.00 0.00 0.00 0.00 0.00 0.00 0.00 0.00 0.01 0.00 0.00 0.00 0.00 0.00 0.00 0.00 0.01 0.01 0.01 0.00 0.01 0.02 0.02 0.02 0.03 0.04 0.05 0.03 0.03 0.02 0.02
0.01 0.02 0.01 0.01 0.01 0.01 0.01 0.01 0.01 0.01 0.01 0.01 0.01 0.01 0.00 0.00 0.00 0.00 0.00 0.00 0.00 0.00 0.00 0.00 0.00 0.00 0.00 0.00 0.00 0.01 0.01 0.01 0.01 0.01 0.01 0.01 0.01 0.02 0.03 0.03 0.03 0.03 0.02 0.02
MSLP
1016.02 1016.75 1017.34 1017.80 1018.13 1018.36 1018.53 1018.65 1018.74 1018.80 1018.83 1018.82 1018.76 1018.66 1018.53 1018.39 1018.25 1018.13 1018.04 1017.97 1017.91 1017.84 1017.76 1017.65 1017.52 1017.40 1017.29 1017.24 1017.24 1017.33 1017.48 1017.69 1017.90 1018.10 1018.23 1018.29 1018.26 1018.15 1017.98 1017.79 1017.62 1017.50 1017.44 1017.46
1016.55 1017.14 1017.61 1017.96 1018.22 1018.44 1018.63 1018.82 1018.99 1019.13 1019.21 1019.21 1019.11 1018.93 1018.69 1018.43 1018.18 1017.99 1017.87 1017.83 1017.84 1017.88 1017.91 1017.92 1017.88 1017.81 1017.72 1017.65 1017.62 1017.66 1017.78 1017.96 1018.17 1018.37 1018.53 1018.61 1018.60 1018.49 1018.31 1018.10 1017.90 1017.75 1017.67 1017.68
1016.89 1017.32 1017.63 1017.86 1018.07 1018.29 1018.55 1018.84 1019.14 1019.39 1019.56 1019.58 1019.46 1019.20 1018.83 1018.43 1018.06 1017.77 1017.61 1017.57 1017.65 1017.79 1017.94 1018.07 1018.14 1018.14 1018.09 1018.02 1017.97 1017.97 1018.05 1018.19 1018.39 1018.60 1018.77 1018.87 1018.88 1018.79 1018.62 1018.41 1018.19 1018.02 1017.93 1017.93
1017.06 1017.31 1017.47 1017.60 1017.77 1018.02 1018.38 1018.81 1019.27 1019.67 1019.93 1020.00 1019.85 1019.49 1019.00 1018.44 1017.91 1017.50 1017.25 1017.20 1017.31 1017.54 1017.82 1018.07 1018.25 1018.35 1018.35 1018.30 1018.24 1018.21 1018.25 1018.37 1018.55 1018.75 1018.94 1019.07 1019.11 1019.05 1018.90 1018.70 1018.49 1018.32 1018.22 1018.21
1017.13 1017.20 1017.22 1017.28 1017.44 1017.76 1018.24 1018.84 1019.47 1020.01 1020.38 1020.48 1020.29 1019.84 1019.19 1018.44 1017.74 1017.17 1016.83 1016.73 1016.85 1017.15 1017.53 1017.92 1018.22 1018.42 1018.49 1018.48 1018.42 1018.38 1018.39 1018.48 1018.64 1018.84 1019.04 1019.20 1019.28 1019.27 1019.16 1018.99 1018.80 1018.64 1018.54 1018.53
1017.15 1017.07 1016.99 1017.00 1017.19 1017.60 1018.22 1018.98 1019.77 1020.45 1020.90 1021.02 1020.78 1020.21 1019.39 1018.45 1017.55 1016.81 1016.34 1016.18 1016.30 1016.65 1017.13 1017.63 1018.06 1018.36 1018.52 1018.56 1018.53 1018.48 1018.47 1018.53 1018.67 1018.87 1019.10 1019.29 1019.42 1019.45 1019.40 1019.27 1019.12 1018.97 1018.88 1018.85
1017.16 1016.97 1016.83 1016.83 1017.07 1017.58 1018.34 1019.25 1020.18 1020.96 1021.46 1021.57 1021.25 1020.55 1019.56 1018.42 1017.33 1016.43 1015.84 1015.60 1015.71 1016.10 1016.67 1017.28 1017.82 1018.24 1018.48 1018.58 1018.58 1018.53 1018.51 1018.56 1018.68 1018.89 1019.12 1019.35 1019.53 1019.62 1019.62 1019.54 1019.42 1019.29 1019.20 1019.17
1017.17 1016.93 1016.77 1016.80 1017.11 1017.72 1018.58 1019.60 1020.62 1021.45 1021.96 1022.03 1021.62 1020.79 1019.63 1018.33 1017.07 1016.03 1015.34 1015.04 1015.15 1015.57 1016.21 1016.91 1017.57 1018.08 1018.42 1018.58 1018.61 1018.58 1018.55 1018.59 1018.70 1018.90 1019.16 1019.41 1019.63 1019.78 1019.83 1019.79 1019.70 1019.59 1019.50 1019.47
1017.18 1016.93 1016.79 1016.87 1017.25 1017.93 1018.87 1019.94 1020.99 1021.82 1022.29 1022.29 1021.80 1020.84 1019.57 1018.14 1016.77 1015.64 1014.88 1014.56 1014.66 1015.12 1015.82 1016.60 1017.35 1017.95 1018.37 1018.59 1018.66 1018.64 1018.62 1018.64 1018.75 1018.95 1019.21 1019.49 1019.74 1019.93 1020.02 1020.02 1019.96 1019.86 1019.77 1019.72
1017.16 1016.94 1016.84 1016.98 1017.41 1018.13 1019.09 1020.16 1021.17 1021.95 1022.35 1022.27 1021.69 1020.67 1019.33 1017.85 1016.44 1015.28 1014.51 1014.19 1014.31 1014.80 1015.55 1016.39 1017.20 1017.87 1018.35 1018.62 1018.73 1018.73 1018.72 1018.74 1018.84 1019.03 1019.29 1019.59 1019.86 1020.08 1020.20 1020.23 1020.18 1020.09 1020.00 1019.94
1017.08 1016.91 1016.87 1017.06 1017.51 1018.23 1019.15 1020.15 1021.07 1021.75 1022.06 1021.91 1021.28 1020.23 1018.89 1017.44 1016.07 1014.96 1014.24 1013.95 1014.11 1014.63 1015.40 1016.28 1017.12 1017.83 1018.35 1018.66 1018.80 1018.83 1018.83 1018.86 1018.96 1019.15 1019.41 1019.71 1019.99 1020.22 1020.37 1020.42 1020.39 1020.30 1020.21 1020.15
1016.95 1016.84 1016.85 1017.06 1017.50 1018.16 1018.99 1019.86 1020.65 1021.21 1021.42 1021.21 1020.57 1019.56 1018.30 1016.95 1015.70 1014.70 1014.06 1013.84 1014.03 1014.57 1015.35 1016.22 1017.06 1017.78 1018.31 1018.65 1018.82 1018.89 1018.91 1018.96 1019.08 1019.27 1019.54 1019.84 1020.13 1020.37 1020.53 1020.60 1020.58 1020.52 1020.44 1020.38
1016.80 1016.74 1016.78 1016.98 1017.37 1017.93 1018.61 1019.32 1019.95 1020.36 1020.48 1020.23 1019.62 1018.71 1017.59 1016.41 1015.33 1014.47 1013.95 1013.80 1014.03 1014.56 1015.30 1016.13 1016.94 1017.63 1018.17 1018.53 1018.74 1018.86 1018.93 1019.02 1019.16 1019.38 1019.66 1019.97 1020.27 1020.52 1020.70 1020.79 1020.80 1020.75 1020.69 1020.65
1016.67 1016.65 1016.70 1016.86 1017.15 1017.56 1018.06 1018.58 1019.02 1019.29 1019.32 1019.06 1018.52 1017.74 1016.80 1015.83 1014.95 1014.27 1013.86 1013.78 1014.01 1014.50 1015.17 1015.93 1016.67 1017.33 1017.86 1018.24 1018.50 1018.68 1018.83 1018.98 1019.18 1019.44 1019.75 1020.08 1020.39 1020.67 1020.87 1020.98 1021.03 1021.02 1021.00 1020.99
1016.62 1016.62 1016.64 1016.72 1016.88 1017.12 1017.42 1017.72 1017.97 1018.10 1018.05 1017.80 1017.34 1016.71 1015.98 1015.22 1014.55 1014.03 1013.73 1013.69 1013.90 1014.32 1014.89 1015.55 1016.20 1016.81 1017.33 1017.74 1018.07 1018.34 1018.58 1018.83 1019.11 1019.43 1019.78 1020.15 1020.49 1020.79 1021.03 1021.19 1021.28 1021.33 1021.35 1021.39
1016.68 1016.66 1016.63 1016.61 1016.62 1016.67 1016.75 1016.83 1016.88 1016.87 1016.75 1016.51 1016.14 1015.67 1015.13 1014.58 1014.09 1013.71 1013.49 1013.46 1013.62 1013.95 1014.41 1014.94 1015.51 1016.06 1016.57 1017.03 1017.44 1017.82 1018.18 1018.55 1018.93 1019.33 1019.75 1020.16 1020.55 1020.89 1021.17 1021.39 1021.54 1021.65 1021.74 1021.82
1016.82 1016.78 1016.68 1016.55 1016.39 1016.23 1016.09 1015.96 1015.82 1015.67 1015.49 1015.25 1014.96 1014.62 1014.25 1013.88 1013.54 1013.27 1013.10 1013.06 1013.16 1013.38 1013.71 1014.13 1014.61 1015.11 1015.63 1016.14 1016.65 1017.15 1017.65 1018.14 1018.64 1019.15 1019.64 1020.11 1020.54 1020.93 1021.27 1021.55 1021.77 1021.96 1022.11 1022.26
1017.01 1016.93 1016.75 1016.48 1016.16 1015.81 1015.45 1015.12 1014.81 1014.53 1014.28 1014.04 1013.80 1013.57 1013.33 1013.09 1012.87 1012.68 1012.55 1012.48 1012.51 1012.63 1012.85 1013.16 1013.57 1014.04 1014.58 1015.16 1015.77 1016.39 1017.02 1017.65 1018.27 1018.86 1019.43 1019.96 1020.45 1020.89 1021.28 1021.63 1021.93 1022.20 1022.43 1022.64
1017.13 1017.01 1016.75 1016.36 1015.89 1015.36 1014.81 1014.29 1013.83 1013.43 1013.11 1012.85 1012.65 1012.49 1012.35 1012.22 1012.09 1011.96 1011.84 1011.75 1011.72 1011.76 1011.90 1012.14 1012.49 1012.96 1013.52 1014.16 1014.86 1015.60 1016.35 1017.09 1017.80 1018.48 1019.11 1019.70 1020.24 1020.73 1021.19 1021.60 1021.98 1022.32 1022.64 1022.91
1017.11 1016.94 1016.60 1016.11 1015.50 1014.82 1014.13 1013.45 1012.86 1012.36 1011.97 1011.70 1011.52 1011.40 1011.33 1011.28 1011.21 1011.13 1011.03 1010.94 1010.88 1010.87 1010.96 1011.15 1011.48 1011.94 1012.53 1013.22 1013.99 1014.81 1015.65 1016.48 1017.26 1018.00 1018.69 1019.32 1019.90 1020.44 1020.95 1021.43 1021.89 1022.31 1022.70 1023.05
1016.85 1016.64 1016.24 1015.66 1014.96 1014.17 1013.36 1012.58 1011.88 1011.31 1010.87 1010.57 1010.40 1010.32 1010.29 1010.29 1010.29 1010.25 1010.19 1010.12 1010.05 1010.03 1010.10 1010.28 1010.60 1011.06 1011.66 1012.38 1013.20 1014.06 1014.95 1015.82 1016.65 1017.43 1018.15 1018.81 1019.43 1020.01 1020.58 1021.12 1021.65 1022.15 1022.62 1023.04
1016.33 1016.08 1015.64 1015.01 1014.25 1013.40 1012.53 1011.68 1010.92 1010.30 1009.82 1009.51 1009.33 1009.28 1009.29 1009.33 1009.37 1009.39 1009.37 1009.34 1009.30 1009.30 1009.37 1009.55 1009.87 1010.33 1010.93 1011.66 1012.47 1013.35 1014.24 1015.12 1015.96 1016.75 1017.49 1018.17 1018.83 1019.45 1020.07 1020.67 1021.27 1021.84 1022.38 1022.88
1015.58 1015.30 1014.84 1014.20 1013.42 1012.55 1011.66 1010.79 1010.02 1009.37 1008.88 1008.56 1008.39 1008.34 1008.37 1008.45 1008.53 1008.60 1008.63 1008.64 1008.65 1008.68 1008.78 1008.97 1009.29 1009.74 1010.32 1011.02 1011.81 1012.65 1013.52 1014.37 1015.20 1015.99 1016.73 1017.44 1018.12 1018.79 1019.45 1020.12 1020.78 1021.42 1022.03 1022.58
1014.67 1014.37 1013.91 1013.28 1012.53 1011.69 1010.83 1009.99 1009.23 1008.60 1008.12 1007.79 1007.61 1007.56 1007.60 1007.69 1007.80 1007.90 1007.98 1008.04 1008.09 1008.17 1008.29 1008.50 1008.81 1009.24 1009.78 1010.43 1011.16 1011.95 1012.77 1013.59 1014.39 1015.16 1015.91 1016.63 1017.35 1018.06 1018.78 1019.50 1020.22 1020.92 1021.58 1022.20
1013.70 1013.40 1012.96 1012.38 1011.68 1010.92 1010.12 1009.35 1008.64 1008.04 1007.57 1007.25 1007.06 1007.00 1007.02 1007.11 1007.22 1007.33 1007.44 1007.53 1007.62 1007.73 1007.88 1008.09 1008.39 1008.78 1009.28 1009.87 1010.53 1011.25 1012.01 1012.78 1013.55 1014.31 1015.07 1015.82 1016.57 1017.33 1018.10 1018.87 1019.64 1020.38 1021.09 1021.74
1012.79 1012.50 1012.09 1011.57 1010.97 1010.30 1009.61 1008.92 1008.29 1007.74 1007.29 1006.97 1006.76 1006.66 1006.65 1006.70 1006.79 1006.89 1007.00 1007.10 1007.21 1007.33 1007.49 1007.70 1007.98 1008.35 1008.79 1009.32 1009.91 1010.57 1011.27 1011.99 1012.74 1013.50 1014.27 1015.05 1015.84 1016.65 1017.46 1018.27 1019.07 1019.84 1020.57 1021.25
Thickness
5736 5723 5714 5718 5721 5721 5715 5709 5705 5710 5722 5716 5710 5710 5714 5717 5716 5713 5711 5711 5712 5714 5719 5720 5721 5720 5718 5717 5716 5716 5715 5714 5713 5712 5710 5709 5708 5708 5709 5710 5710 5710 5709 5708
5718 5715 5725 5728 5726 5721 5713 5706 5704 5710 5718 5714 5707 5707 5714 5716 5716 5716 5714 5713 5713 5714 5715 5717 5717 5717 5716 5715 5714 5714 5714 5713 5713 5712 5710 5708 5707 5707 5707 5708 5708 5708 5708 5708
5712 5720 5731 5726 5719 5714 5710 5705 5705 5704 5709 5710 5705 5700 5707 5715 5718 5718 5718 5717 5716 5715 5714 5714 5715 5715 5715 5714 5713 5714 5713 5712 5712 5711 5709 5708 5707 5706 5705 5705 5706 5706 5707 5707
5714 5723 5724 5719 5715 5713 5703 5715 5712 5706 5695 5688 5696 5680 5700 5707 5710 5714 5716 5715 5716 5717 5717 5715 5715 5714 5714 5715 5715 5714 5712 5711 5711 5710 5709 5707 5704 5702 5702 5703 5704 5705 5706 5706
5710 5719 5717 5713 5716 5716 5710 5717 5711 5703 5693 5685 5687 5680 5690 5703 5704 5711 5717 5718 5718 5718 5718 5717 5717 5716 5716 5716 5714 5713 5712 5710 5710 5709 5709 5706 5703 5702 5702 5703 5703 5703 5704 5704
5712 5721 5721 5719 5722 5721 5715 5706 5697 5688 5681 5671 5683 5677 5684 5697 5708 5716 5720 5721 5721 5720 5719 5719 5718 5716 5714 5714 5713 5712 5710 5709 5709 5708 5707 5706 5704 5702 5701 5701 5701 5701 5702 5702
5700 5710 5719 5723 5712 5711 5706 5686 5667 5665 5659 5664 5682 5679 5688 5713 5720 5723 5724 5724 5724 5722 5720 5717 5715 5714 5713 5712 5711 5711 5709 5707 5707 5707 5706 5706 5704 5703 5702 5701 5701 5700 5700 5700
5683 5685 5707 5715 5710 5701 5697 5689 5665 5656 5654 5662 5677 5676 5699 5721 5726 5728 5729 5727 5725 5722 5720 5719 5718 5716 5714 5713 5711 5710 5708 5707 5706 5706 5705 5705 5704 5703 5702 5702 5701 5701 5700 5700
5679 5682 5707 5714 5715 5707 5691 5684 5686 5668 5665 5660 5667 5682 5704 5722 5723 5725 5725 5724 5722 5722 5721 5720 5718 5716 5715 5713 5712 5711 5708 5706 5706 5705 5705 5704 5704 5703 5702 5702 5702 5701 5701 5701
5690 5682 5696 5705 5708 5703 5699 5687 5673 5665 5654 5652 5665 5675 5687 5709 5715 5719 5720 5720 5721 5722 5720 5719 5718 5717 5715 5714 5713 5711 5709 5707 5706 5705 5705 5705 5703 5703 5703 5702 5701 5701 5701 5701
5691 5678 5682 5691 5691 5687 5687 5682 5674 5664 5662 5652 5652 5672 5706 5711 5716 5717 5719 5721 5721 5721 5720 5719 5718 5717 5715 5713 5712 5710 5708 5706 5705 5705 5704 5703 5703 5702 5702 5701 5701 5701 5700 5700
5683 5671 5665 5678 5693 5698 5692 5684 5673 5662 5658 5656 5654 5672 5716 5716 5719 5719 5719 5721 5721 5721 5720 5719 5717 5715 5713 5711 5710 5709 5708 5707 5706 5705 5703 5702 5702 5701 5700 5700 5700 5700 5700 5699
5679 5666 5655 5660 5671 5684 5684 5683 5680 5671 5659 5651 5653 5676 5713 5714 5716 5719 5718 5719 5719 5719 5717 5716 5714 5713 5712 5711 5710 5708 5708 5707 5706 5704 5702 5701 5700 5699 5699 5699 5699 5699 5698 5697
5682 5664 5658 5654 5662 5672 5675 5678 5676 5669 5657 5654 5662 5679 5700 5708 5710 5714 5716 5717 5717 5717 5716 5714 5713 5712 5712 5711 5710 5708 5707 5706 5705 5703 5701 5700 5699 5698 5698 5698 5698 5697 5697 5696
5675 5662 5665 5668 5675 5676 5677 5677 5675 5672 5670 5665 5674 5680 5696 5706 5709 5713 5715 5715 5715 5715 5714 5714 5713 5712 5711 5710 5709 5708 5707 5706 5705 5702 5700 5699 5699 5698 5697 5697 5696 5696 5695 5694
5664 5659 5661 5664 5672 5673 5672 5677 5677 5677 5677 5676 5680 5685 5704 5709 5710 5711 5712 5713 5713 5714 5715 5716 5715 5713 5712 5711 5710 5708 5707 5705 5704 5702 5700 5699 5697 5696 5695 5695 5694 5693 5692 5691
5653 5652 5648 5647 5661 5664 5660 5677 5679 5679 5683 5682 5679 5691 5702 5704 5707 5710 5712 5713 5714 5716 5716 5716 5717 5717 5715 5714 5712 5709 5708 5706 5703 5701 5700 5698 5696 5694 5694 5693 5691 5690 5689 5688
5648 5645 5640 5639 5647 5640 5669 5689 5690 5686 5688 5691 5693 5698 5702 5706 5711 5714 5715 5715 5716 5718 5718 5718 5718 5718 5718 5716 5714 5711 5708 5705 5703 5701 5699 5697 5696 5694 5692 5691 5689 5688 5687 5685
5650 5642 5633 5631 5633 5646 5669 5685 5686 5682 5683 5694 5694 5698 5702 5706 5707 5708 5715 5718 5719 5720 5721 5721 5721 5720 5718 5716 5714 5710 5706 5704 5702 5701 5699 5698 5696 5693 5691 5689 5688 5686 5684 5683
5642 5642 5632 5627 5630 5635 5665 5687 5694 5687 5676 5695 5696 5696 5697 5698 5689 5699 5714 5716 5718 5719 5720 5721 5720 5718 5716 5715 5713 5709 5706 5703 5702 5702 5701 5699 5696 5694 5691 5689 5687 5684 5683 5681
5628 5628 5626 5625 5630 5644 5672 5685 5686 5665 5674 5696 5697 5697 5696 5695 5699 5708 5713 5714 5716 5717 5718 5719 5717 5716 5715 5714 5711 5708 5705 5704 5705 5703 5700 5697 5695 5693 5691 5688 5685 5682 5680 5678
5627 5624 5624 5625 5627 5643 5676 5676 5673 5677 5690 5694 5695 5697 5697 5699 5703 5705 5708 5710 5711 5712 5714 5715 5713 5712 5713 5712 5709 5706 5704 5706 5704 5701 5698 5696 5694 5692 5689 5685 5683 5680 5678 5675
5628 5634 5635 5638 5647 5664 5673 5676 5683 5686 5687 5691 5692 5696 5698 5697 5698 5701 5703 5705 5707 5708 5710 5711 5710 5709 5708 5708 5708 5705 5705 5704 5701 5698 5696 5694 5692 5689 5688 5684 5680 5677 5675 5673
5626 5635 5634 5637 5650 5661 5669 5675 5681 5684 5686 5690 5693 5694 5695 5694 5695 5697 5698 5699 5700 5703 5704 5705 5705 5704 5703 5704 5704 5704 5703 5702 5699 5696 5693 5691 5689 5686 5684 5682 5680 5676 5674 5671
5622 5626 5629 5635 5647 5656 5665 5670 5675 5680 5684 5687 5689 5691 5691 5691 5691 5692 5693 5694 5695 5697 5698 5699 5699 5699 5699 5700 5700 5700 5700 5699 5696 5693 5690 5688 5686 5683 5680 5678 5677 5676 5676 5675
5618 5624 5626 5632 5645 5648 5657 5667 5671 5674 5678 5681 5683 5684 5687 5688 5687 5688 5688 5689 5690 5691 5692 5692 5693 5693 5694 5695 5695 5696 5696 5695 5692 5688 5686 5684 5682 5679 5677 5674 5671 5671 5671 5671